Location: Unspecified
(0.0000°N, 0.0000°E)
Time: 11:08:43
(UTC+00:00)

Courier 1B - Pass Details

Date: 25 November 2019
Orbit: 963 x 1209 km, 28.3° (Epoch: 14 December)

Event Time Altitude Azimuth Distance (km) Brightness Sun altitude
Rises 14:08:51 0° 255° (WSW) 3,650 11.1 49.6°
Reaches altitude 10° 14:13:06 10° 229° (SW) 2,733 10.8 48.7°
Maximum altitude 14:16:09 13° 202° (SSW) 2,517 10.4 48.1°
Drops below altitude 10° 14:19:16 10° 174° (S) 2,797 10.3 47.4°
Sets 14:23:45 0° 148° (SSE) 3,807 10.6 46.4°
